Theta_e
327 327 327 330 329 328 328 328 328 329 330 329 328 329 329 329 330 329 329 331 331 340 339 334 329 331 333 333 334 335 334 333 333 333 333 333 332 329 324 326 326 323 325 325
328 327 330 329 328 327 328 329 330 330 330 329 329 329 329 329 329 329 329 330 333 341 339 337 331 331 332 333 334 335 335 334 335 336 335 333 328 326 325 321 322 322 321 320
327 329 328 328 327 329 329 330 330 328 327 327 328 329 330 332 331 330 331 333 336 340 339 336 332 330 331 332 334 335 335 336 335 330 325 324 321 317 318 319 319 318 317 317
328 329 328 328 328 329 329 329 328 326 326 326 327 326 332 331 329 331 332 332 333 335 339 337 333 331 331 333 333 330 329 327 325 324 322 322 321 320 319 318 317 316 316 315
330 329 328 328 329 329 328 328 329 328 328 329 328 327 331 330 330 328 329 332 332 334 334 334 329 333 333 332 327 324 324 324 323 323 322 320 320 318 319 317 316 315 315 316
330 329 328 329 329 328 330 330 329 328 329 330 330 328 332 331 329 328 329 329 330 332 332 335 334 332 329 327 324 323 322 321 321 320 320 319 318 317 316 316 315 314 314 313
329 328 328 328 329 331 330 330 329 331 330 331 330 328 331 329 327 326 327 327 328 329 329 332 331 330 326 324 323 322 321 320 320 319 318 317 316 316 316 315 315 314 312 312
333 331 330 330 329 328 329 329 332 331 327 326 328 328 331 328 327 326 326 326 326 327 328 326 326 326 324 323 322 321 320 319 318 316 315 315 317 316 316 315 312 312 311 311
334 333 330 329 329 328 329 330 328 328 331 330 330 330 328 328 328 327 327 326 327 327 327 327 326 324 323 322 321 320 319 318 316 315 316 317 317 316 314 313 311 311 311 311
331 333 331 330 330 329 329 329 329 330 334 330 328 329 331 330 329 328 327 326 324 327 327 325 324 323 322 321 319 319 318 316 315 316 317 317 315 314 313 312 312 311 311 311
329 332 332 332 333 333 330 328 329 330 330 332 331 330 330 329 328 328 326 325 325 325 324 324 323 321 320 319 319 318 316 315 315 317 317 316 314 313 313 312 311 310 310 310
333 335 334 332 331 331 329 328 327 329 329 330 330 329 330 328 327 327 327 325 324 324 323 323 322 320 319 319 318 316 315 315 316 317 316 314 314 313 312 311 310 309 308 309
335 333 334 333 332 331 331 328 327 328 329 331 333 332 329 327 327 326 326 325 325 324 323 323 321 320 319 318 317 315 315 315 316 316 316 314 313 312 310 309 309 308 310 309
330 334 334 334 332 330 328 328 327 329 333 329 329 329 328 328 328 325 325 325 324 323 323 321 320 319 318 317 316 315 314 315 316 315 314 313 312 311 309 308 308 309 309 309
333 334 331 329 329 329 327 327 327 326 326 329 327 328 327 328 327 325 325 324 324 323 322 321 320 318 318 316 315 314 314 315 315 314 313 312 310 308 307 307 309 309 308 308
332 333 329 328 328 327 327 328 327 326 325 325 327 327 328 326 325 325 325 324 324 322 322 321 319 318 317 316 315 314 314 315 314 313 312 310 308 308 307 309 309 308 308 308
333 334 332 331 329 328 329 327 328 327 327 327 328 328 326 326 325 324 323 323 323 322 321 320 318 317 316 315 314 314 314 314 312 311 310 309 308 308 308 309 309 309 308 308
336 338 334 331 330 331 328 328 327 326 326 326 327 327 327 325 325 324 325 325 324 323 322 320 318 317 316 315 315 313 314 313 311 310 309 308 307 309 309 309 309 309 309 308
333 338 335 336 333 331 328 328 327 328 329 328 327 327 327 325 325 326 325 324 322 323 322 320 318 316 315 315 314 313 313 311 309 309 308 308 309 309 309 309 310 310 309 309
333 331 336 335 334 333 331 328 327 327 329 324 327 327 327 326 327 328 327 325 323 324 322 320 318 316 315 315 313 313 312 309 309 308 307 308 310 309 309 309 310 310 310 309
333 334 334 332 334 332 330 327 327 328 332 330 329 327 327 328 327 326 325 326 324 324 323 320 318 316 315 314 313 313 310 308 308 307 307 309 309 309 310 310 310 310 310 309
335 335 334 333 333 331 329 328 333 330 326 326 326 327 327 327 326 325 324 323 325 324 323 320 318 316 314 314 313 311 309 309 308 307 308 309 309 309 310 310 310 310 310 310
332 332 335 333 332 328 326 325 325 325 327 326 325 326 327 326 326 325 324 322 325 325 323 320 318 316 315 313 312 308 307 307 307 307 308 309 309 310 310 309 310 310 310 309
327 328 328 331 330 327 329 328 328 326 325 325 326 327 327 326 326 326 326 323 325 325 323 320 318 316 315 313 309 308 308 306 307 307 308 309 309 310 309 309 308 309 309 308
325 326 328 328 327 327 327 329 328 327 326 325 324 324 326 326 325 325 323 323 324 325 322 319 317 316 313 311 309 308 307 306 307 307 308 309 309 310 309 308 307 309 309 308
323 328 326 327 325 326 326 328 328 327 326 325 324 323 323 323 322 323 322 322 324 324 321 319 317 314 312 311 309 308 307 306 306 308 309 309 309 310 309 307 306 306 307 307
Wind_Speed
17 11 16 1 12 11 10 10 9 9 0 2 9 12 15 8 10 5 13 12 21 7 23 24 19 21 11 8 3 4 6 10 12 12 12 15 15 20 23 21 21 28 27 25
11 13 9 9 7 9 9 10 10 12 12 6 11 15 15 12 3 7 13 14 14 10 14 12 24 16 13 9 9 9 8 11 10 11 15 18 19 17 19 21 18 12 19 18
13 12 9 5 7 4 11 11 9 11 15 14 18 18 20 13 7 7 8 11 9 10 14 11 16 14 12 9 6 4 7 10 12 20 16 16 19 23 19 19 22 22 26 26
8 12 5 4 10 5 8 11 11 13 12 11 14 11 13 9 3 4 1 5 11 13 12 13 8 12 9 2 6 8 10 16 14 18 20 17 18 18 22 25 25 29 32 35
5 5 5 6 11 5 11 12 13 12 12 13 17 6 8 6 9 8 11 2 4 8 14 10 21 15 8 11 8 7 8 11 12 13 16 20 20 25 23 28 31 31 24 21
4 7 4 8 5 2 10 13 20 17 14 11 3 3 12 8 7 7 10 7 10 10 8 7 15 10 8 1 3 7 10 11 13 17 20 21 24 27 29 31 34 30 31 31
8 8 9 4 9 7 12 12 9 2 4 4 7 7 9 9 8 9 8 9 4 3 4 10 9 4 4 7 7 10 13 18 21 22 23 21 27 30 29 27 27 28 34 30
12 6 1 4 5 7 13 6 7 7 11 15 16 3 8 12 11 8 4 5 10 9 12 11 10 8 7 9 12 15 16 19 17 17 25 29 25 25 22 26 32 32 31 24
8 9 5 1 2 2 10 7 10 6 14 10 11 15 12 5 8 6 1 4 6 8 4 8 9 5 7 12 13 17 16 16 22 25 24 22 24 29 33 31 28 27 23 22
6 5 5 7 5 4 5 4 4 5 5 9 13 7 7 9 10 10 13 16 19 2 2 7 9 9 6 9 15 13 17 19 22 24 21 23 27 30 31 29 27 30 25 23
6 5 9 9 8 4 4 9 5 1 5 8 8 2 10 6 5 9 13 13 12 9 6 7 9 11 10 11 13 16 19 20 22 21 22 23 27 28 26 28 28 24 23 23
3 3 8 16 10 3 7 6 6 4 7 10 9 9 6 4 7 7 3 9 7 8 9 10 11 12 12 14 14 16 19 21 20 21 22 23 22 25 29 29 26 26 24 23
2 4 5 7 4 7 8 1 3 6 4 10 9 8 5 11 12 13 10 7 9 7 9 11 11 12 13 14 16 17 20 20 20 21 20 24 25 31 32 31 28 22 22 29
4 3 8 10 14 15 10 12 11 11 5 10 13 16 15 13 11 12 11 13 12 13 13 13 11 11 13 15 16 18 20 20 19 22 23 27 31 34 33 30 24 24 29 32
2 6 10 13 17 12 16 15 14 15 14 13 13 14 12 8 9 8 7 7 9 12 14 14 12 12 13 15 17 18 21 20 20 23 22 25 32 30 29 24 24 29 27 25
5 5 9 13 14 16 19 10 15 18 15 14 12 13 8 9 7 11 11 10 11 13 16 15 13 13 12 14 16 19 20 22 23 23 25 25 29 28 26 25 28 28 27 26
6 6 9 11 14 13 8 15 10 14 7 6 8 10 14 10 11 9 15 10 7 13 15 14 13 12 13 14 16 19 20 22 22 23 22 26 28 27 28 28 28 28 25 21
7 7 8 10 13 13 13 4 10 6 9 10 10 10 10 6 9 15 20 5 10 13 12 12 11 12 13 14 16 19 19 19 22 22 24 26 23 26 30 29 27 24 22 21
9 9 10 10 12 14 14 4 1 3 4 8 13 16 7 10 11 8 11 8 9 9 10 10 10 12 14 14 17 19 19 20 23 21 23 21 24 28 31 26 23 21 20 19
9 14 10 11 14 16 14 7 8 3 6 10 18 11 7 10 7 5 5 9 10 9 9 10 10 11 14 15 17 17 19 20 21 22 20 19 22 30 28 23 21 20 18 17
9 10 12 12 4 13 16 33 7 4 2 7 9 3 11 8 10 12 16 9 7 8 10 10 10 13 14 15 17 15 17 18 20 20 17 20 23 28 22 20 20 19 17 17
9 7 6 5 4 8 6 7 13 7 8 9 11 15 10 9 11 13 15 16 7 8 9 9 10 11 12 14 15 18 16 18 18 17 16 19 25 25 20 21 21 18 14 9
0 7 7 8 7 15 14 16 13 20 10 12 9 13 9 12 15 16 18 19 9 8 9 8 9 10 10 11 18 18 16 17 17 17 16 20 26 21 18 19 20 16 12 7
9 9 3 3 8 7 14 11 15 12 9 5 12 8 8 14 19 20 17 21 10 8 8 8 7 7 8 11 17 12 15 16 15 15 14 19 25 19 17 18 18 14 10 8
13 16 10 10 7 8 9 7 12 13 14 14 15 32 9 16 22 19 18 18 13 11 9 8 6 6 6 9 14 13 14 15 15 12 16 18 23 16 13 17 19 15 10 8
15 9 8 10 17 11 15 10 10 11 13 16 20 23 23 22 20 22 23 22 15 11 8 7 5 5 5 8 12 10 14 14 14 12 16 18 19 12 12 14 19 17 15 13
Wind_Direction
226 246 242 164 24 0 335 325 306 299 79 3 286 292 300 303 250 315 300 276 284 201 128 134 225 179 160 181 217 270 273 290 302 314 307 304 287 283 299 310 303 298 295 291
249 238 60 33 19 340 321 296 309 335 5 331 281 275 284 286 72 344 320 297 274 162 138 151 190 178 182 200 226 243 287 299 281 283 284 290 303 306 296 303 300 321 318 306
262 40 51 1 333 324 305 360 8 327 311 293 266 269 243 81 52 13 325 317 324 182 172 174 179 203 221 222 238 248 218 247 279 293 299 289 288 302 318 298 299 305 294 302
276 84 359 303 268 53 308 12 325 304 301 294 333 299 98 109 107 145 298 304 300 301 207 201 215 215 228 315 327 328 309 300 306 299 313 311 327 315 303 304 300 294 292 293
50 102 210 258 58 37 323 325 284 270 270 281 269 244 144 166 93 42 30 344 271 278 307 152 198 224 224 275 303 318 335 328 316 320 322 320 315 311 308 305 306 303 308 320
2 50 348 1 12 248 289 301 311 276 250 245 158 305 97 91 58 41 60 19 353 332 308 118 112 61 344 119 319 314 326 315 314 316 315 312 312 309 312 308 309 306 299 299
208 183 107 328 287 194 358 357 323 278 283 194 195 259 84 108 79 59 41 16 8 315 308 77 330 3 63 2 1 334 319 320 318 314 315 311 311 308 307 312 314 306 303 291
245 125 124 132 29 356 303 341 334 338 318 322 310 254 112 91 85 81 48 40 341 340 349 354 358 355 342 337 334 329 322 320 321 317 315 316 312 307 306 301 309 308 309 301
343 72 111 94 346 3 350 338 344 299 271 257 285 92 95 120 137 154 52 343 300 276 335 312 308 353 323 320 321 322 319 319 317 316 316 315 310 310 312 312 314 311 308 303
337 316 314 152 254 212 281 342 335 227 301 322 332 350 77 41 38 15 354 343 327 139 293 298 292 298 307 313 323 319 317 321 318 317 315 310 310 313 310 310 305 306 301 304
312 318 296 293 13 283 304 311 256 338 289 298 298 36 83 53 14 12 3 339 343 6 347 338 350 332 335 328 323 319 323 319 318 315 312 313 314 321 317 310 308 306 301 304
69 352 308 314 261 235 313 311 344 312 300 307 322 301 56 20 28 13 60 347 1 340 320 314 315 332 337 332 325 327 320 322 317 313 314 317 320 311 308 308 312 308 308 303
72 232 276 295 233 59 302 9 262 228 275 276 280 283 116 13 41 13 4 352 332 321 324 332 332 337 335 333 330 325 323 321 315 314 314 314 313 311 317 318 321 321 313 312
16 285 272 280 300 314 294 304 293 292 252 271 278 309 320 350 36 0 355 353 341 338 332 333 343 336 334 331 329 327 323 321 312 316 315 310 315 316 318 320 324 320 311 314
268 258 271 280 287 297 295 286 291 289 282 275 274 283 313 22 14 346 330 318 319 336 338 342 346 340 331 328 329 326 326 320 318 323 321 316 320 324 330 330 322 322 324 323
183 273 285 277 285 277 270 296 288 277 268 279 284 294 43 1 338 347 349 331 340 350 339 335 335 334 331 332 330 328 328 322 327 321 320 326 335 340 339 330 324 326 329 330
214 253 281 265 280 290 283 274 293 332 270 279 295 301 345 335 339 346 320 320 20 347 339 336 337 335 332 331 330 328 328 320 325 323 326 330 337 335 332 331 331 333 336 339
205 243 258 266 273 270 271 271 251 305 312 326 305 291 294 331 8 330 301 358 357 346 344 339 333 330 328 332 328 325 330 324 320 327 334 331 337 334 332 335 339 340 340 339
225 244 268 264 268 270 278 313 86 282 298 340 312 284 337 348 351 45 45 21 348 348 334 331 327 327 330 328 324 332 323 324 330 330 330 338 342 333 334 339 342 342 340 345
50 1 301 279 282 282 302 320 98 34 290 353 334 6 340 347 314 65 17 352 345 327 328 323 323 330 325 325 328 328 327 328 329 331 342 344 338 334 337 341 341 339 338 340
197 232 249 259 14 300 19 359 43 244 27 360 347 314 279 329 348 339 323 291 308 310 313 311 321 324 323 328 329 322 330 328 329 344 346 350 334 340 342 344 344 344 343 335
181 214 232 224 217 265 69 38 321 5 346 319 326 327 304 329 329 320 321 323 291 293 300 303 314 317 327 327 320 327 331 328 340 351 349 346 341 345 344 346 352 354 354 350
134 299 151 181 239 222 234 201 226 252 321 309 304 296 311 318 306 307 325 317 300 290 287 295 300 320 323 325 317 334 326 338 348 353 350 346 344 349 350 359 4 9 14 43
320 140 202 199 242 312 226 294 33 26 11 339 303 297 305 300 300 295 303 317 290 280 276 277 296 312 330 323 329 338 328 344 352 353 358 345 346 355 360 13 14 16 35 64
295 319 312 303 265 289 273 55 28 17 351 324 327 285 313 304 301 306 318 311 289 266 259 269 290 308 334 326 338 333 343 354 357 6 354 345 352 3 20 19 16 28 43 77
295 322 320 315 329 328 335 326 328 325 324 319 309 308 300 301 302 307 310 309 280 255 249 253 286 305 339 335 342 338 348 358 355 4 349 341 351 14 38 42 41 52 62 77